Weather History for KCOU - February, 2014

Change the Weather History Date:

Thursday, February 20, 2014

  Actual Average Record
Temperature  
Mean Temperature 54 °F 36 °F  
Max Temperature 72 °F 46 °F 72 °F (2014)
Min Temperature 35 °F 26 °F 0 °F (1929)
Degree Days  
Heating Degree Days 11 29  
Month to date heating degree days 832 637  
Since 1 July heating degree days 4150 3726  
Cooling Degree Days 0 0  
Month to date cooling degree days 0 0  
Year to date cooling degree days 0 0  
Growing Degree Days 4 (Base 50)    
Moisture  
Dew Point 41 °F    
Average Humidity 74    
Maximum Humidity 86    
Minimum Humidity 61    
Precipitation  
Precipitation T in 0.09 in 1.82 in (1997)
Month to date precipitation 1.36 1.56  
Year to date precipitation 2.26 3.48  
Snow  
Snow 0.00 in 0.10 in 4.90 in (1919)
Month to date snowfall 7.4 3.6  
Since 1 July snowfall 17.3 15.0  
Snow Depth 0.00 in    
Sea Level Pressure  
Sea Level Pressure 29.53 in    
Wind  
Wind Speed 19 mph (SW)    
Max Wind Speed 49 mph    
Max Gust Speed 59 mph    
Visibility 10 miles    
Events Rain , Thunderstorm    
T = Trace of Precipitation, MM = Missing Value Source: NWS Daily Summary

Daily Weather History Graph

Daily Weather History Graph

Search for Another Location

Airport or City:

Trip Planner

Search our weather history database for the weather conditions in past years. The results will help you decide how hot, cold, wet, or windy it might be!

Date:

Astronomy

Feb. 20, 2014 Rise Set
Actual Time 6:53 AM CST 5:52 PM CST
Civil Twilight 6:26 AM CST 6:19 PM CST
Nautical Twilight 5:55 AM CST 6:50 PM CST
Astronomical Twilight 5:24 AM CST 7:21 PM CST
Moon 11:43 PM CST (2/20) 9:40 AM CST (2/20)
Length of Visible Light 11h 52m
Length of Day
10h 58m
Waning Gibbous, 70% of the Moon is Illuminated
Feb 20
Waning Gibbous
Feb 22
Last Quarter
Mar 1
New
Mar 8
First Quarter
Mar 16
Full

Hourly Weather History & Observations

Time (CST) Temp. Windchill Dew Point Humidity Pressure Visibility Wind Dir Wind Speed Gust Speed Precip Events Conditions
12:13 AM 46.9 °F - 34.0 °F 61% 29.65 in 10.0 mi SE 15.0 mph - N/A   Overcast
12:54 AM 48.0 °F - 35.1 °F 61% 29.62 in 10.0 mi SE 12.7 mph - N/A   Overcast
1:54 AM 51.1 °F - 39.9 °F 66% 29.58 in 10.0 mi SSE 16.1 mph - N/A   Overcast
2:54 AM 53.1 °F - 45.0 °F 74% 29.55 in 10.0 mi South 16.1 mph 24.2 mph N/A   Scattered Clouds
3:54 AM 53.1 °F - 46.9 °F 80% 29.52 in 10.0 mi SSE 15.0 mph - N/A   Mostly Cloudy
4:54 AM 52.0 °F - 46.9 °F 83% 29.49 in 10.0 mi SSE 9.2 mph - N/A   Mostly Cloudy
5:54 AM 53.1 °F - 48.9 °F 86% 29.47 in 10.0 mi SSE 10.4 mph - N/A   Mostly Cloudy
6:54 AM 57.0 °F - 53.1 °F 87% 29.44 in 10.0 mi South 16.1 mph - N/A   Overcast
7:54 AM 59.0 °F - 54.0 °F 83% 29.43 in 10.0 mi South 17.3 mph 26.5 mph N/A   Overcast
8:54 AM 60.1 °F - 55.0 °F 83% 29.42 in 10.0 mi South 19.6 mph 28.8 mph N/A   Overcast
9:02 AM 60.1 °F - 55.0 °F 83% 29.41 in 10.0 mi South 19.6 mph - N/A   Mostly Cloudy
9:54 AM 63.0 °F - 55.9 °F 78% 29.37 in 10.0 mi South 24.2 mph 32.2 mph N/A   Overcast
10:54 AM 63.0 °F - 55.9 °F 78% 29.32 in 10.0 mi South 18.4 mph 26.5 mph N/A   Overcast
11:54 AM 66.9 °F - 57.0 °F 70% 29.27 in 10.0 mi South 17.3 mph 27.6 mph N/A   Overcast
12:54 PM 68.0 °F - 52.0 °F 56% 29.22 in 9.0 mi SSW 26.5 mph 44.9 mph 0.00 in Rain Light Rain
1:09 PM 64.9 °F - 51.1 °F 61% 29.25 in 10.0 mi SSW 34.5 mph 52.9 mph 0.00 in Rain , Thunderstorm Light Rain
1:24 PM 66.9 °F - 48.9 °F 52% 29.26 in 10.0 mi WSW 42.6 mph 57.5 mph 0.00 in   Mostly Cloudy
1:54 PM 57.9 °F - 46.0 °F 65% 29.33 in 10.0 mi West 39.1 mph 56.4 mph 0.00 in   Scattered Clouds
2:30 PM 50.0 °F - 41.0 °F 71% 29.41 in 10.0 mi WSW 34.5 mph 46.0 mph N/A   Mostly Cloudy
2:54 PM 43.0 °F 32.2 °F 37.0 °F 80% 29.47 in 10.0 mi West 32.2 mph 44.9 mph N/A   Overcast
3:19 PM 41.0 °F 29.0 °F 34.0 °F 76% 29.51 in 10.0 mi WSW 35.7 mph 51.8 mph N/A   Overcast
3:54 PM 39.9 °F 30.5 °F 32.0 °F 73% 29.57 in 10.0 mi West 19.6 mph 35.7 mph N/A   Overcast
4:54 PM 39.9 °F 29.0 °F 30.9 °F 70% 29.65 in 10.0 mi West 26.5 mph 40.3 mph 0.00 in   Overcast
5:54 PM 39.9 °F 30.2 °F 30.0 °F 68% 29.71 in 10.0 mi West 20.7 mph 34.5 mph N/A   Overcast
6:06 PM 39.9 °F 30.2 °F 30.0 °F 68% 29.71 in 10.0 mi West 20.7 mph 36.8 mph N/A   Overcast
6:35 PM 37.9 °F 28.5 °F 28.9 °F 70% 29.73 in 10.0 mi West 17.3 mph 32.2 mph N/A   Scattered Clouds
6:54 PM 37.9 °F 29.2 °F 28.9 °F 70% 29.74 in 10.0 mi West 15.0 mph 24.2 mph N/A   Clear
7:54 PM 36.0 °F 27.5 °F 28.0 °F 73% 29.74 in 10.0 mi WSW 12.7 mph - N/A   Clear
8:54 PM 36.0 °F 27.1 °F 28.9 °F 76% 29.74 in 10.0 mi WSW 13.8 mph - N/A   Clear
9:54 PM 37.0 °F 28.1 °F 28.0 °F 70% 29.73 in 10.0 mi SW 15.0 mph - N/A   Mostly Cloudy
10:54 PM 37.0 °F 28.5 °F 27.0 °F 67% 29.72 in 10.0 mi West 13.8 mph - N/A   Clear
11:54 PM 37.0 °F 27.0 °F 21.0 °F 52% 29.72 in 10.0 mi West 18.4 mph 31.1 mph N/A   Clear